Location: Gleizolles
(44.4833°N, 6.7667°E)
Time: 15:09:18
(UTC+00:00)

Altair - Pass Details

Date: 28 June 2024
Orbit: 1502 x 1681 km, 47.2° (Epoch: 13 July)

Event Time Altitude Azimuth Distance (km) Brightness Sun altitude
Rises 05:02:00 0° 292° (WNW) 4,686 9.6 10.3°
Reaches altitude 10° 05:05:01 10° 290° (WNW) 3,720 9.1 10.8°
Maximum altitude 05:14:23 72° 209° (SSW) 1,653 7.8 12.4°
Drops below altitude 10° 05:24:06 10° 128° (SE) 3,852 10.2 14.0°
Sets 05:27:17 0° 126° (SE) 4,858 10.7 14.5°
